IRIDIUM 33 DEB, 37550

Orbit data source: Space-Track

IRIDIUM 33 DEB, 37550 is space debris in LEO originally from a launch on Sun, 14 Sep 1997 UTC launched from the Tyuratam Missile And Space Complex (TTMTR). The debris from Iridium 33, an American commercial communications satellite, has been tracked extensively since its accidental collision with the defunct Russian satellite Cosmos 2251 in 2009. This event, occurring at high speed in low Earth orbit (LEO), generated thousands of pieces of space debris, significantly increasing the risk of further collisions. The Iridium 33 debris cloud has impacted space traffic management and orbital debris mitigation strategies, making it a subject of ongoing study in space situational awareness.

Loading next visibility...
Identifier
37550, 1997-051XK
Orbit
LEO
Country
Flag of USUS
Related business
Manufacturer
Unknown
Mission
Spacecraft
Bus & Motor
Unknown
Mass
Unknown
Launch date (UTC)
1997-09-14 (29 years ago)
Launch vehicle
Unknown
Launch site
Tyuratam Missile And Space Complex (TTMTR)
Object type
Payload
Rocket body
Debris
Shape & HBR
Unknown shape, 0.1 m
Radar Cross Section
Small (<0.1 m²)

Expand to show TLE details & history
Last TLE update: 14 hours ago

TLE from 14 hours ago
0 IRIDIUM 33 DEB
1 37550U 97051XK  26208.92065826  .00006267  00000-0  10313-2 0  9999
2 37550  86.3753 282.8920 0005107  82.2812 277.8984 14.70426609896682
Epoch: 2026-07-27T22:05Z
TLE epoch observation values (Epoch: 2026-07-27T22:05:44.873Z)
Latitude
Longitude
5.85772°
Altitude
662.316 km
Speed
7.526 km/s
True Right ascension
18h 51m 34s
True Declination
0° 00' 00"
Sunlit
Object was in full shadow at epoch
Visualization orbit readout
Latitude
Unknown
Longitude
Unknown
Altitude
Unknown
Speed
Unknown
Apparent Right ascension
Unknown
Apparent Declination
Unknown
Sunlit
N/A
Visualization observer readout
Local Sidereal Time
01:39:12
Azimuth
Unknown
Elevation
Unknown
Doppler factor
Unknown
Orbital elements
Apogee altitude
660.213 km
Perigee altitude
653.028 km
Semi-major axis
7,034.757 km
Eccentricity
0.00051
Inclination
86.3753°
RAAN
282.892°
Arg. of periapsis
82.2812°
True anomaly
277.84043°
Mean anomaly
277.8984°
Eccentric anomaly
277.86941°
Mean motion
3.67849 °/min
Orbital period
97.87 mins
BSTAR
0.0010313
Loading maneuver chart data...
Computing Atmospheric mass density...

Documentation

Showing up to 5 results
|